Lid_Strength_Index
2 1 -1 -1 -1 -1 -1 -1 -1 -1 -1 -1 -1 -1 -1 -1 -1 -1 -1 -1 -1 -1 -1 -1 -1 -1 -1 -1 -1 -1 -1 -1 -1 -1 -2 -1 -1 -1 -1 -1 -1 -1 -1
1 1 -1 -1 -1 -1 -1 -1 -1 -1 -1 -1 -1 -2 -1 -2 -1 -1 -1 -1 -1 -1 -1 -1 -1 -2 -1 -1 -1 -1 -1 -1 -1 -1 -2 -2 -2 -1 -1 -1 -1 -1 -1
0 0 -0 -2 -1 -1 -1 -1 -1 -1 -1 -2 -2 -2 -1 -1 -1 -1 -1 -1 -1 -1 -1 -1 -2 -2 -1 -1 -1 -1 -1 -1 -1 -1 -2 1 2 -2 -1 -1 -1 -1 -1
0 1 -0 -1 -1 -2 -2 -1 -2 -2 -1 -1 -2 -2 -1 -1 -1 -1 -2 -1 -1 -1 -1 -2 -1 -1 -1 -1 -1 -1 -2 -2 -1 -1 0 1 0 -2 -1 -1 -1 -1 -1
1 1 -0 -1 -1 -2 -1 -1 -1 -1 -1 -1 -1 -2 -2 -2 -2 -1 -1 -1 -1 -2 -2 -2 -1 -1 -1 -1 -2 -2 -2 -2 -1 1 1 1 1 -1 -1 -1 -1 -1 -1
2 1 -1 -1 -2 -2 -1 -1 -1 -1 -1 -2 -2 -1 -1 -0 0 0 0 1 -0 0 0 1 1 1 1 1 1 1 1 1 2 4 3 2 1 -1 -1 -1 -1 -2 -1
3 2 0 -2 -2 -2 -2 -2 -2 -2 -2 -1 -0 0 1 1 1 1 1 1 1 1 1 2 2 2 2 2 2 2 2 2 4 5 4 1 1 -1 -1 -1 -1 -1 -1
4 3 2 -1 -2 -2 -1 -1 -1 -1 -0 1 1 1 2 2 2 2 2 2 2 2 2 2 2 2 2 2 3 3 3 4 7 6 5 2 1 -1 -1 -1 -1 -1 -1
5 5 4 3 1 -0 -1 -0 0 1 1 1 2 2 3 3 3 3 3 3 2 3 3 3 3 4 3 4 4 4 4 5 10 8 7 5 2 -0 -1 -1 -2 -2 -2
7 6 6 6 5 4 3 1 1 1 2 2 3 4 4 5 5 5 5 4 3 4 4 4 4 5 5 5 5 5 6 6 10 9 8 5 2 1 0 0 -0 -1 -2
8 7 8 7 7 7 6 4 3 3 3 4 4 4 7 10 9 8 5 5 5 5 5 5 6 6 7 7 7 7 8 10 10 10 9 4 3 2 1 1 1 1 -0
9 9 8 9 9 8 6 7 8 7 9 9 9 9 11 11 11 9 7 7 7 7 7 7 8 9 10 12 12 10 12 12 12 11 10 6 4 3 2 2 1 1 1
9 9 9 9 9 9 9 10 11 10 11 10 11 11 11 11 11 12 12 13 13 11 13 12 13 13 13 13 13 13 13 13 13 12 10 7 6 4 3 2 2 1 1
12 10 9 10 9 10 11 10 11 11 12 12 12 11 12 13 13 13 13 14 14 14 15 14 14 14 14 13 13 13 13 13 13 13 12 8 7 6 4 3 2 2 1
12 11 11 11 10 10 11 11 11 12 11 12 12 12 12 13 14 14 14 14 15 15 15 15 15 15 14 14 14 14 14 14 13 13 13 10 8 7 5 4 3 2 2
11 11 11 11 10 11 11 11 11 11 11 12 13 13 13 13 14 14 15 15 15 15 15 15 15 15 15 15 15 14 14 14 14 14 13 13 9 8 6 5 4 3 3
10 11 11 11 11 11 11 11 12 11 11 12 13 13 13 13 14 14 15 15 15 15 15 15 16 16 16 15 16 15 14 14 14 14 14 14 13 9 7 6 5 4 4
10 11 11 10 11 11 11 12 12 12 12 12 13 13 13 14 14 15 15 15 15 16 16 16 16 17 17 16 16 16 15 15 15 14 14 14 13 12 10 7 6 5 4
9 10 11 11 11 11 12 12 13 13 12 12 14 14 14 14 14 15 16 16 16 16 16 16 17 17 17 17 16 16 16 16 16 14 14 14 13 13 11 8 7 7 6
9 10 10 11 11 11 12 14 14 14 14 13 14 14 15 15 15 16 16 16 16 16 17 17 17 17 17 18 16 16 17 17 16 16 15 14 13 13 13 12 12 12 9
10 10 11 12 12 12 13 14 14 14 14 15 15 14 15 15 15 16 16 16 17 17 17 17 17 18 18 18 18 18 18 17 16 16 16 16 15 14 13 14 14 13 13
10 10 11 12 13 13 12 12 13 13 15 14 14 15 14 15 15 16 16 17 17 18 18 18 18 18 18 18 20 19 20 19 17 17 17 16 17 15 15 15 15 14 14
10 11 12 12 12 12 12 13 16 16 16 16 16 15 15 15 15 16 17 17 18 18 18 18 18 18 19 19 19 20 21 21 20 18 17 17 17 17 16 15 15 14 14
10 11 11 12 12 12 13 14 14 14 15 14 14 15 16 16 16 16 17 17 18 18 18 18 18 19 19 19 19 18 19 19 20 21 18 18 17 17 16 16 15 15 14
11 12 12 12 13 13 13 13 14 14 14 16 16 17 16 16 16 17 17 18 18 18 18 18 19 19 19 19 19 19 19 20 19 20 21 19 18 17 16 16 15 15 15
13 12 12 13 13 13 14 14 14 14 16 17 17 16 17 17 17 17 17 18 18 18 18 19 19 19 19 19 19 19 19 20 20 21 21 21 20 18 17 16 16 16 15